Other Public Products
Issued by NWS Grand Forks, ND

Home | Current Version | Previous Version | Text Only | Print | Product List | Glossary Off
Versions: 1 2 3 4 5 6 7 8 9 10 11 12 13 14 15 16 17 18 19 20 21 22 23 24 25 26 27 28 29 30 31 32 33 34 35 36 37 38 39 40 41 42 43 44 45 46 47 48 49 50

000
FPUS83 KFGF 300231
OPUFGF
PRAIRIE TO PINES WEATHER ROUNDUP
NATIONAL WEATHER SERVICE EASTERN NORTH DAKOTA/GRAND FORKS ND
900 PM CDT SUN MAY 29 2016

 **SATELLITE DATA USED TO AUGMENT SKY COVER AT AUTOMATED STATIONS**
 *****  WEATHER ACROSS EASTERN NORTH DAKOTA  *****

CITY           SKY/WX    TMP DP  RH WIND       PRES   REMARKS
GRAND FORKS    CLEAR     68  54  60 CALM      29.90S
GRAND FORKS AF CLEAR     68  48  48 W3        29.91S
GRAND CITY NWS   N/A     63 N/A N/A N1          N/A
BUXTON           N/A     69  43  39 CALM        N/A
DEVILS LAKE    CLEAR     68  43  40 W7        29.93S
FARGO          CLEAR     71  49  45 N3        29.91S
WAHPETON ARPT  CLEAR     68  39  34 NW5       29.94S
$$

 *****  WEATHER ACROSS CENTRAL AND WESTERN NORTH DAKOTA  *****

CITY           SKY/WX    TMP DP  RH WIND       PRES   REMARKS
JAMESTOWN      CLEAR     70  45  40 N3        29.94S
BISMARCK       MOCLDY    71  49  45 SW8       29.94R
MINOT          CLEAR     70  42  36 NW5       29.91S
MINOT AFB      CLEAR     68  47  47 W2        29.90S
GARRISON         N/A     72  43  35 CALM      29.92S
WILLISTON      CLEAR     70  41  34 NW6       29.91S
DICKINSON      PTCLDY    71  39  31 N5        29.93S
HETTINGER      PTCLDY    65  50  58 S10       29.97S
$$

 *****  OTHER OBSERVATIONS NORTHEAST NORTH DAKOTA  *****

CITY           SKY/WX    TMP DP  RH WIND       PRES   REMARKS
WALHALLA       FAIR      64  61  88 CALM      29.90S
LANGDON        FAIR      63  50  63 CALM      29.93S
CAVALIER       FAIR      66  52  59 CALM      29.90S
GRAFTON        FAIR      68  54  60 NE3       29.92R
CANDO          FAIR      63  45  51 W5        29.95R
FORT TOTTEN      N/A     67  41  38 CALM      29.95S
ROLLA          FAIR      63  45  51 SW6       29.93S
RUGBY          FAIR      64  43  45 NW3       29.92S
 ***** THE ABOVE OBSERVATIONS ARE NON NWS ARE NOT QUALITY
        CONTROLLED AND MAY MIS-REPORT RAIN FOR SNOW...
$$

 *****  OTHER OBSERVATIONS SOUTHEAST NORTH DAKOTA *****

CITY           SKY/WX    TMP DP  RH WIND       PRES   REMARKS
COOPERSTOWN    NOT AVBL
VALLEY CITY    FAIR      66  43  42 NW6       29.96S
OAKES            N/A    N/A N/A N/A MISG        N/A
GWINNER        FAIR      70  46  43 NW5       29.95S
SHEYENNE NWR     N/A     72  44  36 NW3       29.95S
BUFFALO          N/A     67  40  37 NW3         N/A
WYNDMERE         N/A     70  41  35 NW3         N/A
 ***** THE ABOVE OBSERVATIONS ARE NON NWS ARE NOT QUALITY
       CONTROLLED AND MAY MIS-REPORT RAIN FOR SNOW...
$$

  *****  WEATHER ACROSS NORTHERN MINNESOTA  *****

CITY           SKY/WX    TMP DP  RH WIND       PRES   REMARKS
FLAG ISLAND    CLEAR     63  54  72 W6        29.88R HAZE
WARROAD        CLEAR     63  54  72 W5        29.90S
ROSEAU         PTCLDY    63  55  77 CALM      29.90S
HALLOCK        CLEAR     66  54  63 CALM      29.89S
THF RVR FALLS  CLEAR     64  50  59 CALM      29.93S
HALSTAD        NOT AVBL
FOSSTON        CLEAR     61  50  67 CALM      29.94S
BAUDETTE       PTCLDY    63  52  67 W6        29.89R
WASKISH        CLEAR     64  55  72 W7        29.91R
CROOKSTON      PTCLDY    70  52  52 CALM      29.92R
$$
  *****  WEATHER ACROSS CENTRAL AND WEST MINNESOTA  *****

CITY           SKY/WX    TMP DP  RH WIND       PRES   REMARKS
BEMIDJI        CLEAR     63  51  64 SW3       29.93S
PARK RAPIDS    CLEAR     63  53  70 W5        29.94S
WADENA         CLEAR     61  54  77 CALM      29.95R
DETROIT LAKES  CLEAR     64  46  52 CALM      29.96R
MOORHEAD       CLEAR     68  48  49 CALM      29.93S
FERGUS FALLS   CLEAR     70  43  37 CALM      29.91R
ELBOW LAKE     FAIR      68  47  46 W3        29.95S
MORRIS MN      CLEAR     70  45  40 N3        29.94S
STAPLES        CLEAR     63  52  67 CALM      29.95S
WHEATON        PTCLDY    72  48  43 CALM      29.96S
$$
  *****  WEATHER ELSEWHERE ACROSS MINNESOTA  *****

CITY           SKY/WX    TMP DP  RH WIND       PRES   REMARKS
DULUTH         PTCLDY    60  52  74 W6        29.91R
INTRNTL FALLS  CLEAR     60  52  74 NW5       29.88R
ELY            PTCLDY    57  54  88 CALM      29.89S
CLOQUET        CLEAR     61  52  72 W5        29.93R
BRAINERD       PTCLDY    67  51  56 W5        29.95R
HIBBING        CLEAR     61  52  72 W5        29.90S
ALEXANDRIA     CLEAR     68  49  50 CALM      29.96S
SAINT CLOUD    CLEAR     68  55  63 W3        29.94R
MINNEAPOLIS    PTCLDY    71  57  61 NW3       29.94S
$$

  *****  WEATHER ACROSS SOUTH DAKOTA  *****

CITY           SKY/WX    TMP DP  RH WIND       PRES   REMARKS
SIOUX FALLS    CLEAR     67  52  58 CALM      30.01R
BROOKINGS      CLEAR     68  51  54 W6        30.00R
WATERTOWN      CLEAR     70  45  40 W6        29.98S
HURON          CLEAR     70  51  51 S6        29.97S
SISSETON         N/A     72  44  36 NW5       29.93F
ABERDEEN       PTCLDY    68  51  54 SW5       29.95F
MITCHELL       CLEAR     71  59  65 SE7       29.99S
PIERRE         MOCLDY    69  57  65 E3        29.95S
MOBRIDGE       MOCLDY    64  58  80 SE6       29.94F
RAPID CITY     CLEAR     67  53  61 E8        29.96S
$$

  *****  SOME WEATHER IN NEARBY STATES *****

CITY           SKY/WX    TMP DP  RH WIND       PRES   REMARKS
GLASGOW MT     CLEAR     69  40  34 W6        29.90S
GREAT FALLS MT PTCLDY    61  43  51 SW5       29.94S
CHEYENNE WY    MOCLDY    62  39  42 NW13      30.15R
SCOTTSBLUFF NE MOCLDY    69  45  41 SE3       30.01R
OMAHA NE       CLOUDY    77  61  57 SE3       29.98S
DES MOINES IA  PTCLDY    78  54  43 SW5       30.00R
DAVENPORT IA   PTCLDY    73  58  59 SW3       30.01R
CHICAGO IL     PTCLDY    73  57  57 W5        29.98S
EAU CLAIRE WI  CLEAR     67  56  67 W5        29.92S
LA CROSSE WI   CLEAR     69  58  67 SW5       29.94S
$$

  *****  SOME NATIONAL WEATHER *****

CITY           SKY/WX    TMP DP  RH WIND       PRES   REMARKS
LA GUARDIA NY  MOCLDY    71  70  96 S7        30.06R
RALEIGH NC     CLOUDY    66  64  94 NE7       30.05S
ATLANTA GA     PTCLDY    77  62  59 E7        30.06R
NEW ORLEANS LA MOCLDY    81  71  71 S5        30.03R
OKLAHOMA CITY  CLOUDY    77  66  68 SW3       30.04R
ALBUQUERQUE NM PTCLDY    81  19  10 S15       30.02R
SALT LAKE CITY CLOUDY    70  41  34 S15       30.02R
LOS ANGELES CA MOSUNNY   62  54  74 W14       29.98R
BOISE ID       SUNNY     78  31  17 N8        29.92S
SEATTLE WA     MOSUNNY   62  44  51 NE13      30.19S
$$

*** WEATHER ACROSS MANITOBA...SASKATCHEWAN AND ONTARIO ***
                ***ONTARIO***

CITY           SKY/WX    TMP DP  RH WIND       PRES   REMARKS
GERALDTON      DRIZZLE   54  52  94 NW9       29.74R FOG
THUNDER BAY    MOCLDY    59  55  88 W9        29.79R
SIOUX LOOKOUT  CLOUDY    54  54 100 NW6       29.82  FOG
TORONTO        MOCLDY    73  52  46 SW2       29.90F
BIG TROUT LK   CLOUDY    45  37  76 NE7       29.89F
PICKLE LAKE    DRIZZLE   48  46  93 N6        29.80S FOG
DRYDEN         CLOUDY    55  54  94 W9        29.84S
KENORA         MOCLDY    57  54  88 NW8       29.88R
$$
                *** MANITOBA***

CITY           SKY/WX    TMP DP  RH WIND       PRES   REMARKS
BRANDON          N/A     66  48  52 W5        29.88S
DAUPHIN        MOCLDY    59  54  82 S3        29.88S
ISLAND LAKE    LGT RAIN  52  52 100 SE6       29.93R
PILOT MOUND      N/A     66  43  42 W3          N/A
THE PAS        LGT RAIN  48  46  93 N5        29.92S
THOMPSON       LGT RAIN  48  45  87 NE8       29.97S
WINNIPEG       PTCLDY    63  54  72 N3        29.89S
LYNN LAKE      LGT RAIN  46  46 100 E9        29.99S FOG
CHURCHILL      CLOUDY    28  27  93 NE12      30.20R WCI  18
GILLAM         CLOUDY    45  41  87 NE10      30.03R
$$
                ***SASKATCHEWAN***

CITY           SKY/WX    TMP DP  RH WIND       PRES   REMARKS
ESTEVAN        PTCLDY    66  46  48 W6        29.90S
KINDERSLEY     MOSUNNY   64  45  48 E7        29.83F
LLOYDMINSTER   MOSUNNY   61  48  63 E14       29.87R
PRINCE ALBERT  MOCLDY    55  48  76 NE9       29.91R
REGINA         PTCLDY    66  43  42 W5        29.88S
YORKTON        CLEAR     63  48  59 E5        29.86S   C1F1C2F2C3F3C4F4C5F5C6F6C7F7C8F8C9F9CaFaCbFbCcFcCdFdCe!



USA.gov is the U.S. government's official web portal to all federal, state and local government web resources and services.